Liberal, KS

1:04 AM CST on February 14, 2016 (GMT -0600)
Liberal Municipal

Weather History for KLBL - August, 2014

Change the Weather History Date:

Thursday, August 21, 2014

  Actual Average Record
Temperature  
Mean Temperature 90 °F -  
Max Temperature 102 °F 94 °F 102 °F (1984)
Min Temperature 77 °F 65 °F 51 °F (1950)
Cooling Degree Days 24    
Growing Degree Days 40 (Base 50)    
Moisture  
Dew Point 59 °F    
Average Humidity 41    
Maximum Humidity 57    
Minimum Humidity 20    
Precipitation  
Precipitation 0.00 in - - ()
Sea Level Pressure  
Sea Level Pressure 29.92 in    
Wind  
Wind Speed 16 mph (SSW)    
Max Wind Speed 23 mph    
Max Gust Speed 28 mph    
Visibility 10 miles    
Events Thunderstorm    
Averages and records for this station are not official NWS values.
T = Trace of Precipitation, MM = Missing Value Source: NWS Daily Summary

Daily Weather History Graph

Daily Weather History Graph

Search for Another Location

Airport or City:

Trip Planner

Search our weather history database for the weather conditions in past years. The results will help you decide how hot, cold, wet, or windy it might be!

Date:

Astronomy

Aug. 21, 2014 Rise Set
Actual Time 7:05 AM CDT 8:27 PM CDT
Civil Twilight 6:38 AM CDT 8:54 PM CDT
Nautical Twilight 6:05 AM CDT 9:27 PM CDT
Astronomical Twilight 5:31 AM CDT 10:01 PM CDT
Moon 3:39 AM CDT (8/21) 5:55 PM CDT (8/21)
Length of Visible Light 14h 16m
Length of Day
13h 22m
Waning Crescent, 13% of the Moon is Illuminated
Aug 21
Waning Crescent
Aug 25
New
Sep 2
First Quarter
Sep 8
Full
Sep 15
Last Quarter

Hourly Weather History & Observations

Time (CDT) Temp. Heat Index Dew Point Humidity Pressure Visibility Wind Dir Wind Speed Gust Speed Precip Events Conditions
12:15 AM 82.4 °F 82.0 °F 57.2 °F 42% 29.89 in 10.0 mi South 17.3 mph 23.0 mph N/A   Clear
12:35 AM 82.4 °F 82.0 °F 57.2 °F 42% 29.89 in 10.0 mi South 18.4 mph 23.0 mph N/A   Clear
12:55 AM 82.4 °F 82.0 °F 57.2 °F 42% 29.89 in 10.0 mi South 18.4 mph 24.2 mph N/A   Clear
1:15 AM 82.4 °F 82.0 °F 57.2 °F 42% 29.89 in 10.0 mi South 17.3 mph 23.0 mph N/A   Clear
1:35 AM 82.4 °F 82.5 °F 59.0 °F 45% 29.89 in 10.0 mi South 19.6 mph 25.3 mph N/A   Clear
1:55 AM 82.4 °F 82.5 °F 59.0 °F 45% 29.89 in 10.0 mi South 19.6 mph - N/A   Clear
2:15 AM 82.4 °F 82.9 °F 60.8 °F 48% 29.89 in 10.0 mi South 18.4 mph 25.3 mph N/A   Clear
2:35 AM 80.6 °F 81.1 °F 59.0 °F 48% 29.89 in 10.0 mi South 19.6 mph 23.0 mph N/A   Clear
2:55 AM 80.6 °F 81.1 °F 59.0 °F 48% 29.89 in 10.0 mi South 17.3 mph 23.0 mph N/A   Clear
3:15 AM 78.8 °F - 60.8 °F 54% 29.89 in 10.0 mi South 16.1 mph - N/A   Clear
3:35 AM 78.8 °F - 60.8 °F 54% 29.89 in 10.0 mi South 13.8 mph 19.6 mph N/A   Clear
3:55 AM 78.8 °F - 60.8 °F 54% 29.89 in 10.0 mi South 13.8 mph - N/A   Clear
4:15 AM 78.8 °F - 60.8 °F 54% 29.90 in 10.0 mi South 12.7 mph - N/A   Clear
4:35 AM 77.0 °F - 60.8 °F 57% 29.90 in 10.0 mi South 12.7 mph - N/A   Clear
4:55 AM 77.0 °F - 60.8 °F 57% 29.90 in 10.0 mi South 15.0 mph - N/A   Clear
5:15 AM 77.0 °F - 60.8 °F 57% 29.90 in 10.0 mi South 16.1 mph - N/A   Clear
5:35 AM 77.0 °F - 60.8 °F 57% 29.90 in 10.0 mi South 17.3 mph - N/A   Clear
5:55 AM 77.0 °F - 60.8 °F 57% 29.91 in 10.0 mi South 17.3 mph - N/A   Clear
6:15 AM 77.0 °F - 60.8 °F 57% 29.91 in 10.0 mi SSW 17.3 mph - N/A   Clear
6:35 AM 77.0 °F - 60.8 °F 57% 29.91 in 10.0 mi SSW 17.3 mph 23.0 mph N/A   Clear
6:55 AM 77.0 °F - 60.8 °F 57% 29.91 in 10.0 mi SSW 17.3 mph 20.7 mph N/A   Clear
7:15 AM 77.0 °F - 60.8 °F 57% 29.92 in 10.0 mi SSW 17.3 mph 24.2 mph N/A   Clear
7:35 AM 77.0 °F - 60.8 °F 57% 29.93 in 10.0 mi SSW 16.1 mph - N/A   Clear
7:55 AM 78.8 °F - 60.8 °F 54% 29.93 in 10.0 mi SSW 16.1 mph 19.6 mph N/A   Clear
8:15 AM 78.8 °F - 60.8 °F 54% 29.93 in 10.0 mi SSW 20.7 mph 27.6 mph N/A   Clear
8:35 AM 78.8 °F - 60.8 °F 54% 29.94 in 10.0 mi SSW 19.6 mph 25.3 mph N/A   Clear
8:55 AM 80.6 °F 81.8 °F 62.6 °F 54% 29.94 in 10.0 mi SSW 23.0 mph - N/A   Clear
9:15 AM 80.6 °F 81.8 °F 62.6 °F 54% 29.95 in 10.0 mi SSW 21.9 mph 26.5 mph N/A   Clear
9:35 AM 82.4 °F 83.4 °F 62.6 °F 51% 29.94 in 10.0 mi SW 20.7 mph - N/A   Clear
9:55 AM 84.2 °F 85.0 °F 62.6 °F 48% 29.94 in 10.0 mi SW 19.6 mph 25.3 mph N/A   Clear
10:15 AM 84.2 °F 85.0 °F 62.6 °F 48% 29.95 in 10.0 mi SSW 17.3 mph 25.3 mph N/A   Clear
10:35 AM 87.8 °F 88.5 °F 62.6 °F 43% 29.94 in 10.0 mi SSW 19.6 mph 25.3 mph N/A   Clear
10:55 AM 87.8 °F 88.5 °F 62.6 °F 43% 29.94 in 10.0 mi SW 19.6 mph 26.5 mph N/A   Clear
11:15 AM 89.6 °F 90.1 °F 62.6 °F 40% 29.94 in 10.0 mi SW 17.3 mph 25.3 mph N/A   Clear
11:35 AM 91.4 °F 92.1 °F 62.6 °F 38% 29.95 in 10.0 mi SW 17.3 mph 24.2 mph N/A   Clear
11:55 AM 91.4 °F 91.4 °F 60.8 °F 36% 29.94 in 10.0 mi SW 13.8 mph 18.4 mph N/A   Clear
12:15 PM 93.2 °F 93.3 °F 60.8 °F 34% 29.93 in 10.0 mi West 17.3 mph 25.3 mph N/A   Clear
12:35 PM 93.2 °F 93.3 °F 60.8 °F 34% 29.93 in 10.0 mi SW 17.3 mph 24.2 mph N/A   Clear
12:55 PM 96.8 °F 97.1 °F 60.8 °F 30% 29.93 in 10.0 mi SW 12.7 mph - N/A   Clear
1:15 PM 96.8 °F 97.1 °F 60.8 °F 30% 29.92 in 10.0 mi SW 16.1 mph 23.0 mph N/A   Clear
1:35 PM 96.8 °F 96.2 °F 59.0 °F 28% 29.92 in 10.0 mi SSW 17.3 mph 24.2 mph N/A   Clear
1:55 PM 96.8 °F 95.8 °F 57.2 °F 27% 29.92 in 10.0 mi WSW 11.5 mph 21.9 mph N/A   Clear
2:15 PM 98.6 °F 97.6 °F 57.2 °F 25% 29.91 in 10.0 mi WSW 13.8 mph 21.9 mph N/A   Clear
2:35 PM 98.6 °F 97.2 °F 55.4 °F 24% 29.91 in 10.0 mi WSW 16.1 mph 21.9 mph N/A   Clear
2:55 PM 98.6 °F 97.2 °F 55.4 °F 24% 29.91 in 10.0 mi SW 16.1 mph 20.7 mph N/A   Clear
3:15 PM 98.6 °F 97.2 °F 55.4 °F 24% 29.90 in 10.0 mi SW 13.8 mph 19.6 mph N/A   Clear
3:35 PM 100.4 °F 98.8 °F 55.4 °F 22% 29.90 in 10.0 mi SW 10.4 mph 23.0 mph N/A   Clear
3:55 PM 100.4 °F 98.4 °F 53.6 °F 21% 29.90 in 10.0 mi South 15.0 mph 20.7 mph N/A   Clear
4:15 PM 100.4 °F 98.4 °F 53.6 °F 21% 29.89 in 10.0 mi SW 13.8 mph 19.6 mph N/A   Clear
4:35 PM 102.2 °F 100.4 °F 53.6 °F 20% 29.89 in 10.0 mi SW 17.3 mph 21.9 mph N/A   Clear
4:55 PM 102.2 °F 100.4 °F 53.6 °F 20% 29.89 in 10.0 mi SW 11.5 mph 16.1 mph N/A   Clear
5:15 PM 100.4 °F 98.4 °F 53.6 °F 21% 29.88 in 10.0 mi SW 13.8 mph - N/A   Clear
5:35 PM 100.4 °F 98.8 °F 55.4 °F 22% 29.88 in 10.0 mi SW 11.5 mph 16.1 mph N/A   Clear
5:55 PM 96.8 °F 95.1 °F 55.4 °F 25% 29.89 in 10.0 mi South 12.7 mph - N/A   Partly Cloudy
6:15 PM 96.8 °F 95.8 °F 57.2 °F 27% 29.89 in 10.0 mi South 19.6 mph 26.5 mph N/A Thunderstorm Thunderstorm
6:35 PM 95.0 °F 93.7 °F 57.2 °F 28% 29.89 in 10.0 mi SSE 13.8 mph - N/A   Partly Cloudy
6:55 PM 95.0 °F 93.7 °F 57.2 °F 28% 29.90 in 10.0 mi South 16.1 mph - N/A   Mostly Cloudy
7:15 PM 91.4 °F 89.9 °F 57.2 °F 31% 29.91 in 10.0 mi South 20.7 mph 25.3 mph N/A Thunderstorm Thunderstorm
7:35 PM 87.8 °F 86.5 °F 57.2 °F 35% 29.92 in 10.0 mi SSW 17.3 mph 26.5 mph N/A Thunderstorm Clear
7:55 PM 84.2 °F 83.5 °F 57.2 °F 40% 29.93 in 10.0 mi SSW 15.0 mph 24.2 mph N/A   Clear
8:15 PM 84.2 °F 83.5 °F 57.2 °F 40% 29.92 in 10.0 mi SSW 11.5 mph - N/A   Clear
8:35 PM 84.2 °F 83.5 °F 57.2 °F 40% 29.92 in 10.0 mi South 8.1 mph - N/A   Clear
8:55 PM 84.2 °F 83.5 °F 57.2 °F 40% 29.92 in 10.0 mi South 10.4 mph - N/A   Clear
9:15 PM 84.2 °F 83.8 °F 59.0 °F 42% 29.93 in 10.0 mi South 8.1 mph - N/A   Clear
9:35 PM 82.4 °F 82.5 °F 59.0 °F 45% 29.93 in 10.0 mi South 6.9 mph - N/A   Clear
9:55 PM 82.4 °F 82.5 °F 59.0 °F 45% 29.93 in 10.0 mi South 9.2 mph - N/A   Clear
10:15 PM 84.2 °F 83.8 °F 59.0 °F 42% 29.94 in 10.0 mi South 11.5 mph - N/A   Clear
10:35 PM 82.4 °F 82.5 °F 59.0 °F 45% 29.95 in 10.0 mi South 9.2 mph - N/A   Clear
10:55 PM 82.4 °F 82.5 °F 59.0 °F 45% 29.95 in 10.0 mi South 6.9 mph - N/A   Clear
11:15 PM 80.6 °F 81.5 °F 60.8 °F 51% 29.96 in 10.0 mi South 5.8 mph - N/A   Clear
11:35 PM 78.8 °F - 59.0 °F 51% 29.97 in 10.0 mi NW 5.8 mph - N/A   Clear
11:55 PM 78.8 °F - 59.0 °F 51% 29.97 in 10.0 mi Calm Calm - N/A   Clear